Weather History for Fort Leonard Wood, MO

Change the Weather History Date:

Wednesday, November 13, 2013

  Actual Average Record
Temperature  
Mean Temperature 32 °F -  
Max Temperature 47 °F 54 °F 82 °F (1999)
Min Temperature 16 °F 39 °F 16 °F (2013)
Degree Days  
Heating Degree Days 34    
Moisture  
Dew Point 15 °F    
Average Humidity 55    
Maximum Humidity 91    
Minimum Humidity 24    
Precipitation  
Precipitation 0.00 in - - ()
Sea Level Pressure  
Sea Level Pressure 30.55 in    
Wind  
Wind Speed 5 mph (South)    
Max Wind Speed 10 mph    
Max Gust Speed -    
Visibility 10 miles    
Events      
Averages and records for this station are not official NWS values.
T = Trace of Precipitation, MM = Missing Value Source: NWS Daily Summary

Daily Weather History Graph

Daily Weather History Graph

Search for Another Location

Airport:

Trip Planner

Search our weather history database for the weather conditions in past years. The results will help you decide how hot, cold, wet, or windy it might be!

Date:

Astronomy

Nov. 13, 2013 Rise Set
Actual Time 6:46 AM CST 4:58 PM CST
Civil Twilight 6:18 AM CST 5:26 PM CST
Nautical Twilight 5:47 AM CST 5:58 PM CST
Astronomical Twilight 5:16 AM CST 6:28 PM CST
Moon 2:42 PM CST (11/13) 2:44 AM CST (11/13)
Length of Visible Light 11h 07m
Length of Day
10h 11m
Waxing Gibbous, 85% of the Moon is Illuminated
Nov 13
Waxing Gibbous
Nov 17
Full
Nov 25
Last Quarter
Dec 2
New
Dec 9
First Quarter

Hourly Weather History & Observations

Time (CST) Temp. Windchill Dew Point Humidity Pressure Visibility Wind Dir Wind Speed Gust Speed Precip Events Conditions
12:58 AM 18.9 °F - 16.3 °F 90% 30.73 in 10.0 mi Calm Calm - N/A   Clear
1:58 AM 18.7 °F - 16.0 °F 89% 30.71 in 10.0 mi SW 2.3 mph - N/A   Clear
2:58 AM 18.1 °F - 14.0 °F 84% 30.72 in 8.0 mi WSW 2.3 mph - N/A   Clear
3:58 AM 17.2 °F 10.2 °F 14.9 °F 91% 30.70 in 10.0 mi South 4.6 mph - N/A   Clear
4:58 AM 16.9 °F 11.5 °F 14.7 °F 91% 30.68 in 10.0 mi SSW 3.5 mph - N/A   Clear
5:58 AM 17.6 °F - 14.5 °F 88% 30.69 in 10.0 mi SE 2.3 mph - N/A   Clear
6:58 AM 16.3 °F 5.7 °F 13.6 °F 89% 30.69 in 10.0 mi SSE 8.1 mph - N/A   Clear
7:58 AM 21.6 °F 15.3 °F 15.6 °F 78% 30.69 in 10.0 mi SSE 4.6 mph - N/A   Clear
8:58 AM 30.6 °F 23.1 °F 18.9 °F 62% 30.68 in 10.0 mi South 8.1 mph - N/A   Clear
9:55 AM 35.1 °F 29.3 °F 15.8 °F 45% 30.66 in 10.0 mi South 6.9 mph - N/A   Clear
10:58 AM 39.2 °F 35.9 °F 14.5 °F 37% 30.63 in 10.0 mi Variable 4.6 mph - N/A   Clear
11:58 AM 43.0 °F 37.2 °F 12.4 °F 29% 30.58 in 5.0 mi South 10.4 mph - N/A   Haze
12:58 PM 44.6 °F 40.2 °F 13.1 °F 28% 30.55 in 10.0 mi SW 8.1 mph - N/A   Clear
1:58 PM 46.0 °F 41.9 °F 10.8 °F 24% 30.50 in 10.0 mi SSW 8.1 mph - N/A   Clear
2:58 PM 47.1 °F - 12.0 °F 24% 30.47 in 10.0 mi South 8.1 mph - N/A   Clear
3:58 PM 46.8 °F - 12.2 °F 25% 30.45 in 10.0 mi Variable 5.8 mph - N/A   Clear
4:58 PM 42.8 °F 39.3 °F 15.3 °F 33% 30.43 in 10.0 mi South 5.8 mph - N/A   Clear
5:58 PM 39.7 °F 34.9 °F 16.9 °F 40% 30.43 in 10.0 mi South 6.9 mph - N/A   Clear
6:58 PM 38.1 °F 31.2 °F 16.9 °F 42% 30.41 in 10.0 mi SSE 10.4 mph - N/A   Clear
7:58 PM 36.7 °F 31.2 °F 16.3 °F 44% 30.39 in 10.0 mi South 6.9 mph - N/A   Clear
8:58 PM 35.6 °F 29.2 °F 16.3 °F 46% 30.37 in 10.0 mi South 8.1 mph - N/A   Clear
9:58 PM 36.7 °F 31.2 °F 16.2 °F 43% 30.31 in 10.0 mi South 6.9 mph - N/A   Clear
10:58 PM 36.3 °F 29.5 °F 16.3 °F 44% 30.34 in 10.0 mi South 9.2 mph - N/A   Clear
11:58 PM 34.2 °F 28.2 °F 17.1 °F 50% 30.32 in 10.0 mi South 6.9 mph - N/A   Clear